FW0403 Weather Reports


Display with metric or nautical units.
time (UTC)temp
F
wind
direction
speed
MPH
gust
MPH
rain 1hr
in
rain 24hr
in
rain mn
in
humidity
%
barometer
mb
20260507214745 75 34 6.0 10.0 0.00 0.01 0.01 76 1012.4
20260507214247 75 36 6.0 10.0 0.00 0.01 0.01 76 1012.4
20260507213138 74 52 8.0 13.0 0.00 0.01 0.01 77 1012.4
20260507211952 74 34 8.0 14.0 0.00 0.01 0.01 76 1012.6
20260507211442 74 36 7.0 14.0 0.00 0.01 0.01 77 1012.7
20260507210937 74 2 7.0 14.0 0.00 0.01 0.01 77 1012.8
20260507210443 73 41 8.0 14.0 0.00 0.01 0.01 77 1012.8
20260507205319 73 19 8.0 16.0 0.00 0.01 0.01 77 1012.8
20260507204821 73 19 8.0 16.0 0.00 0.01 0.01 77 1012.9
20260507204310 73 357 9.0 16.0 0.00 0.01 0.01 78 1012.9
20260507203803 72 70 9.0 14.0 0.00 0.01 0.01 78 1013.0
20260507203256 72 2 7.0 14.0 0.00 0.01 0.01 78 1013.1
20260507202753 72 357 7.0 13.0 0.00 0.01 0.01 78 1013.2
20260507202239 72 2 6.0 13.0 0.00 0.01 0.01 78 1013.2
20260507201728 72 13 6.0 13.0 0.00 0.01 0.01 79 1013.3
20260507201221 71 32 8.0 13.0 0.00 0.01 0.01 79 1013.3
20260507200100 71 22 8.0 13.0 0.00 0.01 0.01 79 1013.5
20260507195547 71 2 8.0 14.0 0.00 0.01 0.01 79 1013.5
20260507195045 71 34 8.0 14.0 0.00 0.01 0.01 79 1013.7
20260507194532 71 357 9.0 17.0 0.00 0.01 0.01 80 1013.6
20260507193415 70 32 8.0 17.0 0.00 0.01 0.01 80 1013.6
20260507192242 70 35 8.0 14.0 0.00 0.01 0.01 80 1013.8
20260507191743 70 11 7.0 14.0 0.00 0.01 0.01 81 1013.9
20260507191248 70 357 7.0 15.0 0.00 0.01 0.01 81 1013.8
20260507190728 70 11 9.0 15.0 0.00 0.01 0.01 80 1013.9
20260507185533 70 11 8.0 15.0 0.00 0.01 0.01 80 1014.0
20260507185036 70 90 8.0 16.0 0.00 0.01 0.01 80 1014.0
20260507184534 70 44 9.0 16.0 0.00 0.01 0.01 80 1014.0
20260507184012 70 2 9.0 16.0 0.00 0.01 0.01 80 1014.0
20260507183452 70 48 8.0 16.0 0.00 0.01 0.01 80 1014.1
20260507182948 70 2 7.0 15.0 0.00 0.01 0.01 80 1014.3
20260507182446 70 32 9.0 16.0 0.00 0.01 0.01 80 1014.4
20260507181935 70 16 10.0 16.0 0.00 0.01 0.01 80 1014.2
20260507181422 70 32 10.0 16.0 0.00 0.01 0.01 80 1014.3
20260507180236 70 16 8.0 14.0 0.00 0.01 0.01 80 1014.5
20260507175109 71 11 8.0 17.0 0.00 0.01 0.01 80 1014.5
20260507174613 71 357 9.0 17.0 0.00 0.01 0.01 80 1014.4
20260507174112 70 14 10.0 17.0 0.00 0.01 0.01 81 1014.4
20260507173607 70 38 11.0 17.0 0.00 0.01 0.01 81 1014.3
20260507173105 70 21 10.0 18.0 0.00 0.01 0.01 81 1014.2
20260507171940 69 7 10.0 18.0 0.00 0.01 0.01 81 1014.3
20260507171434 69 331 9.0 17.0 0.00 0.01 0.01 82 1014.5
20260507165650 69 31 11.0 19.0 0.00 0.01 0.01 82 1014.6
20260507164512 69 44 11.0 20.0 0.00 0.01 0.01 82 1014.6
20260507164011 69 28 11.0 20.0 0.00 0.01 0.01 82 1014.3
20260507163512 69 87 12.0 20.0 0.00 0.01 0.01 82 1014.2
20260507163005 69 2 11.0 19.0 0.00 0.01 0.01 82 1014.2
20260507162443 69 26 12.0 19.0 0.00 0.01 0.01 83 1014.3
20260507161930 69 13 11.0 19.0 0.00 0.01 0.01 83 1014.3
20260507161431 69 47 11.0 20.0 0.00 0.01 0.01 83 1014.3
20260507160934 69 15 11.0 20.0 0.00 0.01 0.01 83 1014.3
20260507160413 69 36 11.0 21.0 0.00 0.01 0.01 83 1014.3
20260507155900 69 41 11.0 21.0 0.00 0.01 0.01 83 1014.2
20260507155339 69 55 11.0 21.0 0.00 0.01 0.01 83 1014.3
20260507154844 69 21 11.0 21.0 0.00 0.01 0.01 83 1014.3
20260507154333 69 30 13.0 20.0 0.00 0.01 0.01 83 1014.3
20260507153835 69 42 13.0 20.0 0.00 0.01 0.01 83 1014.4
20260507153313 69 2 12.0 20.0 0.00 0.01 0.01 83 1014.5
20260507152811 69 13 11.0 20.0 0.00 0.01 0.01 83 1014.5
20260507152259 69 2 11.0 20.0 0.00 0.01 0.01 83 1014.2
20260507151753 69 15 12.0 20.0 0.00 0.01 0.01 83 1014.0
20260507151240 69 50 11.0 20.0 0.00 0.01 0.01 83 1013.9
20260507150740 69 11 10.0 20.0 0.00 0.01 0.01 83 1014.0
20260507150219 69 340 12.0 23.0 0.00 0.01 0.01 83 1013.9
20260507145659 69 26 13.0 23.0 0.00 0.01 0.01 83 1013.9
20260507144504 69 44 12.0 21.0 0.00 0.01 0.01 83 1014.0
20260507143348 69 42 10.0 21.0 0.00 0.01 0.01 83 1014.0
20260507142212 70 44 11.0 21.0 0.00 0.01 0.01 83 1013.8
20260507141029 70 64 11.0 20.0 0.00 0.01 0.01 83 1013.9
20260507140509 70 62 10.0 20.0 0.00 0.01 0.01 83 1013.9
20260507135949 70 26 10.0 20.0 0.00 0.01 0.01 83 1014.0
20260507135446 70 48 11.0 20.0 0.00 0.01 0.01 83 1013.9
20260507134938 70 357 12.0 20.0 0.00 0.01 0.01 84 1013.9
20260507134434 70 60 12.0 20.0 0.00 0.01 0.01 84 1013.9
20260507133940 70 2 11.0 18.0 0.00 0.01 0.01 84 1013.9
20260507133437 70 23 10.0 16.0 0.00 0.01 0.01 84 1014.0
20260507132919 70 7 9.0 16.0 0.00 0.01 0.01 84 1013.8
20260507132402 70 47 8.0 16.0 0.00 0.01 0.01 84 1013.9
20260507131859 70 36 7.0 15.0 0.00 0.01 0.01 84 1013.7
20260507130735 70 11 6.0 14.0 0.00 0.01 0.01 85 1013.8
20260507130216 70 53 6.0 14.0 0.00 0.01 0.01 85 1013.9
20260507125654 70 11 8.0 14.0 0.00 0.01 0.01 85 1013.7
20260507125139 70 46 8.0 14.0 0.00 0.01 0.01 85 1013.6
20260507124829 70 20 7.0 16.0 0.00 0.01 0.01 85 1013.5
20260507124318 70 346 6.0 16.0 0.00 0.01 0.01 85 1013.6
20260507123822 70 40 7.0 16.0 0.00 0.01 0.01 85 1013.3
20260507123324 70 57 8.0 16.0 0.00 0.01 0.01 85 1013.4
20260507122805 71 51 7.0 13.0 0.00 0.01 0.01 85 1013.2
20260507122244 71 42 7.0 13.0 0.00 0.01 0.01 85 1012.9
20260507121728 71 30 6.0 13.0 0.00 0.01 0.01 85 1012.9
20260507120607 71 34 7.0 17.0 0.00 0.01 0.01 85 1012.7
20260507120110 71 47 6.0 17.0 0.00 0.01 0.01 85 1012.7
20260507115605 71 44 5.0 18.0 0.00 0.01 0.01 85 1012.7
20260507115056 71 11 9.0 18.0 0.00 0.01 0.01 85 1012.5
20260507114553 71 46 10.0 18.0 0.00 0.01 0.01 85 1012.6
20260507114037 71 30 10.0 18.0 0.00 0.01 0.01 85 1012.5
20260507113524 71 30 10.0 16.0 0.00 0.01 0.01 85 1012.6
20260507113014 71 32 10.0 16.0 0.00 0.01 0.01 85 1012.4
20260507112516 71 28 10.0 20.0 0.00 0.01 0.01 85 1012.4
20260507111958 71 31 11.0 20.0 0.00 0.01 0.01 85 1012.3
20260507111507 71 25 11.0 20.0 0.00 0.01 0.01 85 1012.3
20260507110952 72 2 10.0 20.0 0.00 0.01 0.01 86 1012.2
20260507110448 72 331 9.0 18.0 0.00 0.01 0.01 86 1012.2
20260507105933 72 26 10.0 18.0 0.00 0.01 0.01 86 1012.0
20260507105414 72 11 11.0 18.0 0.00 0.01 0.01 86 1012.0
20260507104854 72 20 10.0 18.0 0.00 0.01 0.01 86 1011.9
20260507104358 72 26 8.0 17.0 0.00 0.01 0.01 86 1011.8
20260507103852 72 42 9.0 15.0 0.00 0.01 0.01 86 1011.8
20260507103354 72 42 10.0 16.0 0.00 0.01 0.01 86 1011.6
20260507102236 72 34 9.0 18.0 0.00 0.01 0.01 86 1011.6
20260507101739 72 59 10.0 18.0 0.00 0.01 0.01 86 1011.6
20260507100558 72 12 11.0 18.0 0.00 0.01 0.01 86 1011.5
20260507100041 72 30 12.0 18.0 0.00 0.01 0.01 86 1011.5
20260507095547 72 352 12.0 18.0 0.00 0.01 0.01 86 1011.6
20260507095025 73 333 10.0 18.0 0.00 0.01 0.01 87 1011.5
20260507094506 73 336 11.0 19.0 0.00 0.01 0.01 87 1011.6
20260507093313 73 2 11.0 19.0 0.00 0.01 0.01 87 1011.5
20260507092812 73 357 0.0 19.0 0.00 0.01 0.01 87 1011.5
20260507091640 73 2 11.0 16.0 0.00 0.01 0.01 87 1011.1
20260507091127 73 20 11.0 16.0 0.00 0.01 0.01 87 1011.0
20260507090627 73 33 9.0 16.0 0.00 0.01 0.01 87 1011.0
20260507090108 73 340 8.0 13.0 0.00 0.01 0.01 87 1011.0
20260507085554 73 21 9.0 17.0 0.00 0.01 0.01 87 1010.9
20260507084406 73 17 9.0 17.0 0.00 0.01 0.01 87 1010.9
20260507083913 74 2 9.0 16.0 0.00 0.01 0.01 87 1010.9
20260507083359 74 28 9.0 15.0 0.00 0.01 0.01 87 1010.8
20260507082840 74 344 9.0 15.0 0.00 0.01 0.01 87 1010.8
20260507082336 74 28 9.0 16.0 0.00 0.01 0.01 87 1010.9
20260507081813 74 11 8.0 16.0 0.00 0.01 0.01 87 1010.9
20260507080621 74 2 9.0 15.0 0.00 0.01 0.01 87 1010.8
20260507080109 75 7 8.0 17.0 0.00 0.01 0.01 87 1010.9
20260507074322 75 2 9.0 17.0 0.00 0.01 0.01 87 1010.9
20260507073139 75 2 6.0 15.0 0.00 0.01 0.01 87 1010.9
20260507072630 75 357 6.0 13.0 0.00 0.01 0.01 87 1011.0
20260507071501 75 344 5.0 13.0 0.00 0.01 0.01 87 1011.1
20260507070351 76 327 6.0 11.0 0.00 0.01 0.01 87 1011.1
20260507065839 76 334 6.0 10.0 0.00 0.01 0.01 87 1011.0
20260507065324 76 357 6.0 11.0 0.00 0.01 0.01 87 1011.1
20260507064805 76 53 5.0 11.0 0.00 0.01 0.01 87 1011.0
20260507063039 77 357 5.0 11.0 0.00 0.00 0.00 87 1011.1
20260507062540 78 324 4.0 8.0 0.00 0.00 0.00 88 1011.0
20260507062037 79 345 2.0 8.0 0.00 0.00 0.00 88 1011.0
20260507061520 80 337 0.0 2.0 0.00 0.00 0.00 88 1011.0
20260507060345 80 340 0.0 1.0 0.00 0.00 0.00 88 1010.8
20260507055827 80 340 0.0 0.0 0.00 0.00 0.00 88 1010.9
20260507055315 80 340 0.0 1.0 0.00 0.00 0.00 88 1010.8
20260507054126 80 309 0.0 1.0 0.00 0.00 0.00 88 1010.9
20260507053018 80 315 0.0 0.0 0.00 0.00 0.00 88 1010.9
20260507052501 80 317 0.0 3.0 0.00 0.00 0.00 88 1010.9
20260507051950 80 281 0.0 2.0 0.00 0.00 0.00 88 1011.0
20260507051442 80 315 0.0 2.0 0.00 0.00 0.00 88 1010.9
20260507050313 80 299 0.0 3.0 0.00 0.00 0.00 88 1010.9
20260507045201 80 238 0.0 1.0 0.00 0.00 0.00 87 1011.0
20260507044646 80 221 0.0 1.0 0.00 0.00 0.00 87 1011.0
20260507044124 80 214 0.0 0.0 0.00 0.00 0.00 87 1011.0
20260507042948 80 198 1.0 4.0 0.00 0.00 0.00 87 1010.7
20260507042455 80 209 1.0 3.0 0.00 0.00 0.00 87 1010.8
20260507041955 80 217 0.0 2.0 0.00 0.00 0.00 87 1010.8
20260507041445 80 213 0.0 3.0 0.00 0.00 0.00 87 1010.8
20260507040929 80 214 0.0 3.0 0.00 0.00 0.00 87 1010.7
20260507040435 80 211 0.0 6.0 0.00 0.00 0.00 87 1010.7
20260507035915 80 190 2.0 6.0 0.00 0.00 0.00 87 1010.6
20260507034751 80 191 4.0 6.0 0.00 0.00 0.00 87 1010.2
20260507034253 80 198 3.0 9.0 0.00 0.00 0.00 87 1010.0
20260507033747 80 190 4.0 9.0 0.00 0.00 0.00 87 1010.1
20260507032623 80 170 4.0 10.0 0.00 0.00 0.00 87 1009.7
20260507031427 80 186 5.0 10.0 0.00 0.00 0.00 87 1009.7
20260507030923 80 196 5.0 10.0 0.00 0.00 0.00 87 1009.6
20260507030421 80 2 4.0 8.0 0.00 0.00 0.00 87 1009.5
20260507025900 80 192 3.0 5.0 0.00 0.00 0.00 87 1009.6
20260507024737 80 181 3.0 6.0 0.00 0.00 0.00 87 1009.5
20260507024231 80 2 3.0 6.0 0.00 0.00 0.00 87 1009.6
20260507023728 80 167 3.0 6.0 0.00 0.00 0.00 87 1009.5
20260507023219 80 189 3.0 6.0 0.00 0.00 0.00 87 1009.5
20260507022709 80 156 4.0 9.0 0.00 0.00 0.00 87 1009.5
20260507022211 80 189 4.0 9.0 0.00 0.00 0.00 87 1009.4
20260507021650 80 161 6.0 11.0 0.00 0.00 0.00 86 1009.4
20260507021134 80 2 6.0 11.0 0.00 0.00 0.00 86 1009.4
20260507015951 80 194 8.0 11.0 0.00 0.00 0.00 86 1009.2
20260507015441 80 165 7.0 10.0 0.00 0.00 0.00 86 1009.1
20260507014940 80 194 6.0 10.0 0.00 0.00 0.00 86 1009.0
20260507014435 80 199 6.0 10.0 0.00 0.00 0.00 86 1008.9
20260507013914 80 2 6.0 10.0 0.00 0.00 0.00 86 1008.9
20260507013359 80 2 6.0 9.0 0.00 0.00 0.00 86 1008.8
20260507012856 80 188 6.0 9.0 0.00 0.00 0.00 86 1008.6
20260507012354 80 2 5.0 9.0 0.00 0.00 0.00 86 1008.6
20260507011843 80 161 4.0 9.0 0.00 0.00 0.00 85 1008.5
20260507011336 80 163 4.0 8.0 0.00 0.00 0.00 85 1008.6
20260507010823 81 177 4.0 8.0 0.00 0.00 0.00 85 1008.6
20260507005652 81 140 2.0 5.0 0.00 0.00 0.00 85 1008.3
20260507005132 81 204 2.0 5.0 0.00 0.00 0.00 85 1008.2
20260507004618 81 182 3.0 5.0 0.00 0.00 0.00 85 1008.2
20260507004123 81 2 3.0 6.0 0.00 0.00 0.00 85 1008.3
20260507003605 81 174 3.0 6.0 0.00 0.00 0.00 85 1008.2
20260507002443 81 140 3.0 6.0 0.00 0.00 0.00 84 1008.2
20260507001928 81 133 4.0 8.0 0.00 0.00 0.00 84 1008.2
20260507001408 81 199 4.0 8.0 0.00 0.00 0.00 84 1008.3
20260507000239 81 184 4.0 8.0 0.00 0.00 0.00 84 1008.2
20260506235716 81 2 4.0 7.0 0.00 0.00 0.00 84 1008.1
20260506235212 81 161 4.0 7.0 0.00 0.00 0.00 84 1008.1
20260506234719 81 2 4.0 7.0 0.00 0.00 0.00 84 1008.1
20260506234205 81 170 3.0 6.0 0.00 0.00 0.00 84 1008.1
20260506233656 82 100 3.0 5.0 0.00 0.00 0.00 84 1008.1
20260506232511 82 161 2.0 5.0 0.00 0.00 0.00 83 1007.9
20260506231949 82 164 3.0 5.0 0.00 0.00 0.00 83 1008.0
20260506231443 82 2 2.0 5.0 0.00 0.00 0.00 83 1008.0
20260506230940 82 176 2.0 6.0 0.00 0.00 0.00 83 1008.0
20260506230427 82 138 3.0 6.0 0.00 0.00 0.00 83 1008.0
20260506225920 82 188 3.0 8.0 0.00 0.00 0.00 83 1007.9
20260506225411 82 163 4.0 8.0 0.00 0.00 0.00 83 1007.8
20260506224914 82 174 4.0 8.0 0.00 0.00 0.00 83 1007.7
20260506223753 82 2 3.0 8.0 0.00 0.00 0.00 83 1007.8
20260506223234 82 2 3.0 8.0 0.00 0.00 0.00 83 1007.8
20260506222725 82 165 4.0 8.0 0.00 0.00 0.00 83 1007.7
20260506222222 82 173 4.0 8.0 0.00 0.00 0.00 82 1007.8
20260506221709 82 157 3.0 7.0 0.00 0.00 0.00 83 1007.8
20260506221201 82 171 3.0 8.0 0.00 0.00 0.00 83 1007.9
20260506220706 82 159 4.0 8.0 0.00 0.00 0.00 82 1007.8
20260506215540 82 188 5.0 9.0 0.00 0.00 0.00 83 1007.8
20260506215044 82 199 4.0 9.0 0.00 0.00 0.00 83 1007.9